Find Local Weather

World > North America > United States > Illinois

Chicago, Illinois Regional Weather

Lat: 41.88N, Lon: 87.63W
Wx Zone: ILZ014
Warning FLW WEATHER ALERT - (More Info. Click Here) Warning
Feedback

Chicago, IL Regional Weather

Expires:201903211000;;692154
ASUS43 KLOT 210908
RWRIL 

ILLINOIS REGIONAL WEATHER ROUNDUP
NATIONAL WEATHER SERVICE CHICAGO/ROMEOVILLE IL
400 AM CDT THU MAR 21 2019

NOTE: "FAIR" INDICATES FEW OR NO CLOUDS BELOW 12,000 FEET WITH NO
SIGNIFICANT WEATHER AND/OR OBSTRUCTIONS TO VISIBILITY.

* THESE STATIONS ARE NOT UNDER NWS QUALITY CONTROL. THEY ALSO MAY NOT
  REPORT WEATHER SUCH AS PRECIPITATION OR FOG.


ILZ005-006-012>014-019>023-211000-
NORTHEAST ILLINOIS
  
CITY           SKY/WX    TMP DP  RH WIND       PRES   REMARKS
CHICAGO-OHARE  CLOUDY    37  33  85 NW8       29.90S WCI  31          
CHICAGO-MIDWAY LGT RAIN  38  34  85 NW13      29.90F WCI  30          
AURORA         CLOUDY    36  33  89 NW10      29.91F FOG     WCI  28  
LANSING*       LGT RAIN  37  35  92 NW8       29.90S WCI  31          
JOLIET*        CLOUDY    38  37  92 NW6       29.92S WCI  34          
WAUKEGAN       CLOUDY    36  32  85 NW7       29.90S FOG     WCI  30  
DUPAGE AIRPORT CLOUDY    38  32  79 NW12      29.90F WCI  30          
KANKAKEE*      LGT RAIN  37  34  88 NW10      29.92S WCI  30          
WHEELING       CLOUDY    38  32  79 NW9       29.92S WCI  31          
MORRIS*        CLOUDY    37  35  93 NW10      29.92S WCI  29          
ROMEOVILLE*    CLOUDY    37  34  90 N10       29.91S WCI  29          
$$


SKY/WX - Weather  TMP - Temperature  DP - Dew Point  RH - Relative Humidity
WIND - Wind Direction/Speed PRES - Barometric Pressure VSB - Visibility
WCI - Wind Chill Index E13G22 Wind - East Wind 13 mph/Gusts of 22 mph